SCP
0 0 1 1 1 1 1 0 0 0 0 0 0 0 0 0 1 1 1 1 1 1 1 1 1 1 1 1 1 1 1 1 1 1 1 1 1 1 1 1 1 0 0
0 0 1 1 1 1 1 0 0 0 0 0 0 0 0 0 0 1 1 1 1 1 1 1 1 1 1 1 1 1 1 1 1 1 1 1 1 1 1 1 0 0 0
0 0 1 1 1 1 0 0 0 0 0 0 0 0 0 0 0 0 0 1 1 1 1 1 1 1 1 0 1 1 1 1 1 1 1 1 1 1 1 1 0 0 0
0 0 1 1 1 1 0 0 0 0 0 0 0 0 0 0 0 0 0 0 0 0 1 1 1 1 0 0 0 1 1 1 1 1 1 1 1 1 1 0 1 1 0
0 0 0 1 1 1 0 0 0 0 0 0 0 0 0 0 0 0 0 0 0 0 1 1 1 1 0 0 0 0 1 1 1 1 1 1 1 1 0 0 1 1 1
0 0 0 0 1 1 0 0 0 0 0 0 0 0 0 0 0 0 0 0 0 0 1 1 1 1 0 0 0 0 1 1 1 1 1 1 1 1 0 0 0 0 1
0 0 0 0 0 0 0 0 0 0 0 0 0 0 0 0 0 0 0 0 0 0 1 1 1 1 1 1 1 1 1 1 1 1 1 1 1 0 0 0 0 1 1
0 0 0 0 0 0 0 0 0 0 0 0 0 0 0 0 0 0 0 0 0 0 0 1 1 1 1 1 1 1 1 1 1 1 1 1 1 0 0 0 1 1 1
0 0 0 0 0 0 0 0 0 0 0 0 0 0 0 0 1 0 0 0 0 0 0 1 1 1 1 1 1 1 1 1 1 1 1 1 1 0 0 0 1 1 1
0 0 0 0 0 0 0 0 0 0 0 0 0 0 0 0 0 0 0 0 0 0 1 1 1 1 1 1 1 1 1 1 1 1 1 1 1 0 0 0 0 1 1
0 0 0 0 0 0 0 0 0 0 0 0 0 0 0 0 0 0 0 0 0 0 1 1 1 1 1 1 1 1 1 1 1 1 1 1 1 1 0 0 1 0 0
0 0 0 0 0 0 0 0 0 0 0 0 0 0 0 0 0 0 0 0 0 1 1 1 1 1 1 1 1 1 1 1 1 1 1 1 1 1 1 1 1 0 0
0 0 0 0 0 0 0 0 0 0 0 0 0 0 0 0 0 0 0 0 0 1 1 1 1 1 1 1 1 1 1 1 1 1 1 1 1 1 1 0 0 0 0
0 0 0 0 0 0 0 0 0 0 0 0 0 0 0 0 0 0 0 0 0 0 1 1 1 1 1 1 1 1 1 1 1 1 1 1 1 1 0 0 0 0 0
0 0 0 0 0 0 0 0 0 0 0 0 0 0 0 0 0 0 0 0 0 0 0 1 1 1 1 1 1 1 1 1 1 1 1 1 1 1 1 0 0 0 1
0 0 0 0 0 0 0 0 0 0 0 0 0 0 0 0 0 0 0 0 0 0 0 0 1 1 1 1 2 1 1 1 1 1 1 1 1 1 1 1 1 1 1
0 0 0 0 0 0 0 0 0 0 0 0 0 0 0 0 0 0 0 0 0 0 0 0 1 1 1 2 2 2 2 1 1 1 1 1 1 1 1 1 1 1 1
0 0 0 0 0 0 0 0 0 0 0 0 0 0 0 0 0 0 0 0 0 0 0 0 0 1 1 2 2 2 2 1 1 1 1 1 1 1 1 1 1 1 0
0 0 0 0 0 0 0 0 0 0 0 0 0 0 0 0 0 0 0 0 0 0 0 0 0 1 1 2 2 2 1 1 1 0 0 0 0 0 0 0 0 0 0
0 0 0 0 0 0 0 0 0 0 0 0 0 0 0 0 0 0 0 0 0 0 0 0 0 0 1 1 2 1 1 0 0 0 0 0 0 0 0 0 0 0 0
0 0 0 1 0 0 0 0 0 0 0 0 0 0 0 0 0 0 0 0 0 0 0 0 0 0 0 1 1 1 0 0 0 0 0 0 0 0 0 0 0 1 1
0 0 1 1 1 0 0 0 0 0 0 0 0 0 0 0 0 0 0 0 0 0 0 0 0 0 0 0 0 0 0 0 0 0 0 0 0 0 0 0 1 1 1
0 1 1 1 1 1 0 0 0 0 0 0 0 0 0 0 0 0 0 0 0 0 0 0 0 0 0 0 0 0 0 0 0 0 0 0 0 0 0 0 1 1 1
0 1 1 1 1 1 0 0 0 0 0 0 0 0 0 0 0 0 0 0 0 0 0 0 0 0 0 0 0 0 0 0 0 0 0 0 1 1 1 0 1 1 1
0 1 1 1 1 1 0 0 0 0 0 0 0 0 0 0 0 0 0 0 0 0 0 0 0 0 0 0 0 0 0 0 0 0 0 1 1 1 1 1 1 1 1
0 1 1 1 1 1 0 0 0 0 0 0 0 0 0 0 0 0 0 0 0 0 0 0 0 0 0 0 0 0 0 0 0 0 0 1 1 2 2 1 2 2 2
Wind_Speed
4 5 6 6 7 8 8 8 8 8 8 9 8 8 8 8 8 8 7 7 7 8 7 7 7 7 7 7 7 7 7 7 7 6 6 6 6 5 5 4 3 4 6
6 6 7 6 8 8 8 8 8 8 8 8 8 8 8 8 8 8 8 8 8 8 8 7 7 8 7 7 7 7 7 7 6 6 5 5 6 5 5 4 4 5 6
6 6 8 8 8 7 7 8 8 8 8 7 7 8 8 8 8 8 8 8 8 8 7 7 7 7 7 7 7 7 7 7 6 4 1 3 6 6 5 5 5 5 5
7 6 8 8 7 7 7 8 8 8 7 7 7 7 7 7 7 7 7 8 8 8 7 7 7 7 7 6 6 7 7 7 5 1 1 4 5 8 6 5 5 5 5
7 7 8 7 7 7 8 8 8 7 7 7 7 7 7 7 7 7 7 7 7 7 7 7 6 7 6 6 6 6 6 5 2 2 5 5 5 7 6 5 5 5 4
7 7 8 6 7 7 7 8 8 7 7 7 7 7 7 7 7 6 7 7 7 7 7 7 7 7 7 7 7 6 5 3 0 4 4 5 5 7 6 6 5 5 4
7 7 7 7 7 7 7 7 7 8 8 7 7 6 6 6 6 6 6 6 6 6 7 7 7 7 7 7 7 7 5 3 3 4 4 5 6 7 6 6 5 5 4
7 6 7 8 7 7 8 8 8 8 8 8 7 7 7 6 6 6 6 6 6 6 6 6 7 8 7 7 7 7 5 3 4 5 5 5 7 7 6 6 6 5 5
6 6 5 6 8 8 7 7 8 8 8 8 8 7 7 7 7 6 6 6 6 6 7 7 7 7 8 8 7 7 5 4 3 4 5 5 7 7 6 6 6 6 5
5 5 5 5 5 5 7 8 7 7 8 8 8 7 6 6 6 5 5 7 7 7 7 7 7 8 8 8 8 7 3 1 4 4 4 6 7 7 7 7 6 6 5
5 5 5 5 5 5 5 6 5 6 6 4 6 6 1 3 5 5 9 7 7 7 7 8 7 7 6 8 8 4 0 2 4 4 5 8 8 8 8 7 7 6 6
6 5 4 4 5 5 4 4 3 4 4 4 5 5 4 5 5 6 9 8 8 7 7 7 6 4 1 4 5 1 2 4 3 4 6 9 8 8 8 8 8 7 6
5 4 4 4 4 4 3 3 2 2 3 4 5 5 4 4 3 3 3 5 5 4 5 5 3 3 4 4 3 3 4 4 3 4 7 9 8 9 8 8 8 8 7
4 4 4 3 3 4 4 3 2 2 3 3 4 5 4 3 3 4 3 4 3 3 3 3 3 5 5 5 4 5 5 3 3 3 6 9 8 8 9 9 9 8 8
5 4 4 3 3 4 4 2 2 3 3 4 3 3 4 3 3 4 4 3 4 3 3 3 4 5 5 5 5 6 5 5 5 5 5 10 10 10 10 10 9 9 9
4 4 4 3 3 3 3 2 3 2 2 3 3 4 4 4 3 3 4 4 4 4 4 4 5 4 5 5 6 6 6 5 5 6 5 7 11 11 11 11 10 10 10
4 4 4 3 3 3 3 3 2 1 2 2 3 3 4 4 4 4 3 4 4 4 4 4 6 4 5 5 6 6 6 6 6 7 6 5 6 10 12 12 12 12 11
4 4 4 3 3 3 2 2 2 2 3 3 3 3 4 4 4 4 3 3 3 3 3 4 4 4 5 5 6 6 6 6 7 7 6 6 6 6 9 13 13 13 12
4 5 5 4 3 4 3 3 2 3 3 3 3 3 3 4 4 4 3 3 4 3 3 3 4 4 5 5 6 5 6 6 6 7 7 8 7 6 6 8 11 13 13
5 5 5 5 4 4 3 3 3 3 3 3 3 3 4 3 4 4 3 3 3 3 3 4 5 4 4 4 5 5 5 5 5 6 6 6 7 8 7 7 6 7 12
6 5 6 5 5 4 3 2 2 3 3 3 3 4 4 3 3 3 2 3 2 3 3 4 4 5 3 3 3 4 5 6 5 5 5 5 7 7 7 7 6 5 5
7 6 6 5 5 4 2 2 2 2 2 3 3 4 3 3 3 2 3 3 3 3 3 3 3 2 2 0 0 1 2 3 3 4 4 5 5 5 6 7 7 7 6
7 7 5 5 5 4 4 3 3 3 3 3 3 3 3 3 3 2 2 2 2 2 3 2 2 1 1 1 2 3 2 2 2 3 4 4 4 4 5 6 7 7 7
8 7 7 6 6 5 5 3 3 2 2 2 2 3 3 3 3 2 2 2 2 2 2 1 1 0 0 1 1 2 3 3 1 2 2 3 4 4 5 5 5 6 7
8 7 6 6 6 5 4 4 3 2 2 2 2 3 3 3 3 3 2 2 2 2 2 1 1 1 1 2 2 1 2 1 2 1 1 2 2 3 4 4 4 5 6
7 7 6 7 6 5 5 4 4 3 3 3 3 3 2 3 2 3 2 2 2 2 1 1 1 1 1 2 2 1 1 1 1 1 1 1 1 2 2 3 4 4 4
Wind_Direction
99 89 82 80 84 81 79 79 78 78 76 75 77 77 77 76 73 71 72 74 74 73 76 76 73 75 71 74 77 79 79 75 74 73 73 72 68 68 77 83 100 94 79
99 92 90 86 85 80 77 78 78 77 77 75 74 75 76 76 75 72 71 72 73 71 69 69 70 74 71 74 76 76 76 75 72 70 76 92 82 72 70 71 60 68 75
102 96 99 84 80 78 76 77 77 75 74 75 75 76 75 72 71 71 73 71 69 69 68 68 70 76 76 75 71 71 71 71 68 62 58 90 94 84 71 73 79 81 74
102 93 86 86 78 75 75 79 79 78 77 77 76 75 76 74 72 70 73 71 70 68 68 67 72 76 75 74 72 71 68 65 60 16 76 67 75 78 73 72 77 80 73
103 95 91 85 76 73 70 73 78 80 80 77 75 73 72 73 72 72 72 72 72 70 67 66 70 78 79 78 76 72 67 61 52 32 59 61 65 73 71 71 71 69 68
110 100 93 85 79 75 73 72 75 76 77 78 76 72 70 71 73 75 75 73 72 70 67 65 69 76 81 82 78 73 68 54 353 66 62 63 68 68 65 68 74 67 61
110 100 96 83 78 76 72 74 74 73 73 73 72 70 69 70 71 73 76 76 76 72 70 66 68 73 76 79 76 72 66 22 52 70 69 67 66 62 59 60 66 65 61
105 101 100 100 81 71 67 71 71 70 67 64 65 70 70 68 67 65 71 78 77 73 74 72 72 74 74 75 74 70 53 347 79 69 67 67 62 61 60 56 54 53 55
106 104 99 102 107 99 77 64 66 65 62 60 62 69 68 65 64 62 70 77 78 78 78 77 77 74 73 72 70 70 60 15 46 59 65 65 57 57 59 57 49 47 48
114 107 104 96 86 86 94 76 62 65 63 64 66 67 75 90 84 73 85 82 82 80 79 79 79 76 76 71 67 67 64 279 54 59 54 62 54 55 58 57 51 42 42
115 109 107 100 91 79 74 82 90 91 78 97 98 92 109 79 79 86 69 77 83 79 76 78 79 79 88 88 72 62 18 59 67 49 51 51 52 54 55 54 49 43 39
125 114 108 101 97 91 80 83 67 73 71 60 57 63 62 67 61 67 89 85 84 86 91 81 88 112 120 95 98 125 65 65 61 58 58 48 53 53 50 49 47 46 40
125 122 112 106 98 91 89 70 57 59 65 67 60 69 65 75 86 78 91 107 100 105 91 102 116 75 72 69 63 68 58 55 56 58 60 48 50 51 46 46 46 48 46
122 113 109 108 106 96 87 77 67 67 63 63 59 58 65 65 67 73 73 72 78 79 73 71 69 72 70 70 69 69 69 58 55 61 62 49 47 48 46 43 43 47 47
129 132 118 115 97 96 85 65 76 71 55 72 62 65 70 74 78 85 85 77 72 78 86 76 74 73 71 64 62 64 60 61 57 60 69 55 43 43 46 43 41 46 48
140 131 121 119 109 105 106 99 76 70 86 66 60 65 70 76 78 78 80 74 69 71 72 82 80 75 70 67 65 65 59 59 56 60 63 70 59 48 46 45 43 47 49
140 132 119 115 116 105 90 76 74 70 76 76 66 64 74 75 79 76 74 80 80 86 87 77 78 76 74 74 70 65 64 53 54 55 54 51 65 64 52 46 44 44 48
147 134 124 133 132 117 106 92 79 76 72 76 77 67 74 82 84 83 82 83 90 89 89 87 81 83 79 70 66 61 63 58 54 54 56 56 52 54 62 50 45 43 43
157 150 140 138 139 127 117 107 81 82 79 74 74 68 71 80 87 93 83 89 97 90 87 90 84 81 83 80 76 65 58 57 53 52 55 54 55 48 50 57 51 45 41
165 157 145 143 146 131 131 119 103 87 86 74 68 68 60 70 79 93 102 103 97 95 91 93 97 88 83 85 81 73 62 62 57 51 49 52 50 48 43 41 46 54 46
171 163 153 157 150 138 131 134 111 103 99 88 71 65 71 76 84 92 100 102 99 97 96 108 109 109 98 96 102 97 87 68 58 58 48 48 53 47 45 43 37 32 47
177 171 167 163 158 146 130 125 104 98 97 86 86 78 70 78 79 93 101 109 109 109 116 116 121 109 102 55 1 138 133 119 72 60 59 52 47 46 44 42 40 37 30
184 178 177 173 163 155 145 132 127 122 134 128 111 88 70 75 81 77 88 104 113 125 122 132 144 143 113 95 20 344 350 60 104 92 59 60 56 46 43 39 37 35 33
187 182 181 175 163 155 156 157 152 155 131 114 117 109 103 85 83 85 99 103 114 107 117 136 114 48 340 52 70 21 14 24 316 125 115 77 60 49 41 38 34 34 33
181 181 183 171 162 161 166 161 175 156 128 123 126 118 113 99 83 85 93 99 102 100 102 94 76 349 359 358 5 34 50 34 304 324 89 98 86 62 44 35 32 30 30
176 178 180 172 163 164 172 172 178 157 152 146 146 136 135 120 109 101 97 98 97 92 90 69 73 31 347 358 349 355 343 336 342 355 8 90 65 64 58 42 31 31 27